Погода в Бенидорме

Испания     38°32′39″N   0°07′57″E
темп.,
°C
ветер,
м/с
пор.,
м/с
влажн.,
%
обл.,
%
осадки,
мм/ч
давл.,
гПа
погр.,
м
11 апреля, вс
вс1123:00+13юз22866 0.0 1014150
02:00+13зюз33871 0.0 1014187
05:00+13юз348411 0.0 1013202
08:00+13юз33838 0.0 1014154
11:00+14ююз44815 0.0 1015269
14:00+15ююз45821 0.9 1014255
17:00+16ю44811 0.4 1013274
20:00+15юз458813 1.9 1015165
12 апреля, пн
пн1223:00+17сз226929 0.1 101719
02:00+14ссв34796 0.2 101988
05:00+14ссв44745 0.0 1020170
08:00+13св567250 0.0 1021246
11:00+13св656199 0.0 1023485
14:00+14в665746 0.0 1024543
17:00+13в777481 0.0 1024553
20:00+13всв3480100 0.0 1025431
13 апреля, вт
вт1323:00+13всв2377100 0.0 1027619
02:00+13в127498 0.1 1026511
05:00+13юв116895 0.0 1025780
08:00+13ююв116887 0.1 1025716
11:00+13юв216988 0.0 1027782
14:00+13юв327053 0.0 1025418
17:00+12юв227292 0.0 1024289
20:00+13в236789 0.0 1023274
14 апреля, ср
ср1423:00+13всв2265100 0.0 1024317
02:00+13всв2267100 0.0 1023287
05:00+13всв3369100 0.0 1022414
08:00+13св4471100 0.0 1021375
11:00+14в4464100 0.0 1021525
14:00+14вюв5569100 0.0 1020514
17:00+14в6668100 0.0 1018495
20:00+14в4470100 0.0 1018585
15 апреля, чт
чт1523:00+13всв3471100 0.3 1020589
02:00+13св6778100 1.1 1018642
05:00+11ссв5680100 3.4 1017374
08:00+11св6885100 6.9 1016518
11:00+11св101285100 5.2 1016674
14:00+11всв7788100 8.6 1016471
17:00+12всв5589100 3.9 1015516
20:00+12св6781100 6.5 1014568